SCP
0 0 0 0 0 0 0 0 0 0 0 0 0 0 0 0 0 0 0 0 -0 0 0 0 -0 -0 -0 -0 0 0 0 0 0 0 0 0 0 -0 -0 -0 0 0 0 0 0 0 0 0 0
0 0 0 0 0 0 0 0 0 0 0 0 0 0 0 0 0 0 0 0 0 0 0 0 -0 -0 -0 -0 -0 0 0 0 0 0 -0 0 0 -0 -0 0 0 0 0 0 0 0 0 0 0
0 0 0 0 0 0 0 0 0 0 0 0 0 0 0 0 0 0 0 0 0 0 0 -0 -0 -0 -0 -0 -0 0 0 0 0 0 0 0 0 0 0 0 0 0 0 0 0 0 0 0 0
0 0 0 0 0 0 0 0 0 0 0 0 0 0 0 0 -0 -0 0 0 0 0 0 -0 -0 -0 -0 -0 0 0 0 0 -0 -0 -0 0 0 0 0 0 0 0 0 0 0 0 0 0 0
0 0 0 0 0 0 0 0 0 0 0 0 0 0 0 -0 0 0 0 0 0 0 0 -0 -0 -0 -0 -0 0 0 0 0 0 0 0 0 0 0 0 0 0 0 0 0 0 0 0 0 0
0 0 0 0 0 0 0 0 0 0 0 0 0 0 0 -0 0 0 0 0 0 0 0 0 0 0 0 0 0 0 0 0 0 0 0 0 0 0 0 0 0 0 0 0 0 0 0 0 0
0 0 0 0 0 0 0 0 0 0 0 0 0 0 0 -0 0 0 0 0 0 0 0 0 0 0 0 0 0 0 0 0 0 0 0 0 0 0 0 0 0 0 0 0 0 0 0 0 0
0 0 0 0 0 0 0 0 0 0 0 0 0 0 0 -0 0 0 0 0 0 0 0 0 0 -0 0 0 0 0 0 0 0 0 0 0 0 0 0 0 0 0 0 0 0 0 0 0 0
0 0 0 0 0 0 0 0 0 0 0 0 0 0 0 0 0 0 0 0 0 -0 -0 -0 -0 -0 -0 0 0 0 0 0 0 0 0 0 0 0 0 0 0 0 0 0 0 0 0 0 0
0 0 0 0 0 0 0 0 0 0 0 0 0 0 0 0 0 0 0 0 0 -0 -0 -0 -0 -0 -0 0 0 0 0 0 0 0 0 0 0 0 0 0 0 0 0 0 0 0 0 0 0
0 0 0 0 0 0 0 0 0 0 0 0 0 0 0 0 0 0 0 0 0 -0 -0 -0 -0 0 0 0 0 0 0 0 0 0 0 0 0 0 0 0 0 0 0 0 0 0 0 0 0
0 0 0 0 0 0 0 0 0 0 0 0 0 0 0 0 0 0 0 0 0 0 -0 -0 -0 0 0 0 0 0 0 0 0 0 0 0 0 0 0 0 0 0 0 0 0 0 0 0 0
0 0 0 0 0 0 0 0 0 0 0 0 0 0 0 0 0 0 0 0 0 0 0 0 0 0 0 0 0 0 0 0 0 0 0 0 0 0 0 0 0 0 0 0 0 0 0 0 0
0 0 0 0 0 0 0 0 0 0 0 0 0 0 0 0 0 0 0 0 0 0 0 0 0 0 0 0 0 0 0 0 0 0 0 0 0 0 0 0 0 0 0 0 0 0 0 0 0
0 0 0 0 0 0 0 0 0 0 0 0 0 0 0 0 0 0 0 0 0 0 0 0 0 0 0 0 0 0 0 0 0 0 0 0 0 0 0 0 0 0 0 0 0 0 0 0 0
0 0 0 0 0 0 0 0 0 0 0 0 0 0 0 0 0 0 0 0 0 0 0 0 0 0 0 0 0 0 0 0 0 0 0 0 0 0 0 0 0 0 0 0 0 0 0 0 0
0 0 0 0 0 0 0 -0 0 0 0 0 0 0 0 0 0 0 0 0 0 0 0 0 0 0 0 0 0 0 0 0 0 0 0 0 0 0 0 0 0 0 0 0 0 0 0 0 0
0 0 0 0 0 0 0 0 -0 0 0 0 0 0 0 0 0 0 0 0 0 0 0 0 0 0 0 0 0 0 0 0 0 0 0 0 0 0 0 0 0 0 0 0 0 0 0 0 0
0 0 0 0 0 0 0 0 0 0 0 0 0 0 0 0 0 0 0 0 0 0 0 0 0 0 0 0 0 0 0 0 0 0 0 0 0 0 0 0 0 0 0 0 0 0 0 0 0
0 0 0 0 0 0 0 0 0 0 0 0 0 0 0 0 0 0 0 0 0 0 0 0 0 0 0 0 0 0 0 0 0 0 0 0 0 0 0 0 0 0 0 0 0 0 0 0 0
0 0 0 0 0 0 0 0 0 0 0 0 0 0 0 0 0 0 0 0 0 0 0 0 0 0 0 0 0 0 0 0 0 0 0 0 0 0 0 0 0 0 0 0 0 0 0 0 0
0 0 0 0 0 0 0 0 0 0 0 0 0 0 0 0 0 0 0 0 0 0 0 0 0 0 0 0 0 0 0 0 0 0 0 0 0 0 0 0 0 0 0 0 0 0 0 0 0
0 0 0 0 0 0 0 0 0 0 0 0 0 0 0 0 0 0 0 0 0 0 0 0 0 0 0 0 0 0 0 0 0 0 0 0 0 0 0 0 0 0 0 0 0 0 0 0 0
0 0 0 0 0 0 0 0 -0 0 0 0 0 0 0 0 0 0 0 0 0 0 0 0 0 0 0 0 0 0 0 0 0 0 0 0 0 0 0 0 0 0 0 0 0 0 0 0 0
0 0 0 0 0 0 0 0 0 0 0 0 0 0 0 0 0 0 0 0 0 0 0 0 0 0 0 0 0 0 0 0 0 0 0 0 0 0 0 0 0 0 0 0 0 0 0 0 0
0 0 0 0 0 0 0 0 0 0 0 0 0 0 0 0 0 0 0 0 0 0 0 0 0 0 0 0 0 0 0 0 0 0 0 0 0 0 0 0 0 0 0 0 0 0 0 0 0
0 0 0 0 0 0 0 0 0 0 0 0 0 0 0 0 0 0 0 0 0 0 0 0 0 0 0 0 0 0 0 0 0 0 0 0 0 0 0 0 0 0 0 0 0 0 0 0 0
0 0 0 0 0 0 0 0 0 0 0 0 0 0 0 0 0 0 0 0 0 0 0 0 0 0 0 0 0 0 0 0 0 0 0 0 0 0 0 0 0 0 0 0 0 0 0 0 0
0 0 0 0 0 0 0 0 0 0 0 0 0 0 0 0 0 0 0 0 0 0 0 0 0 0 0 0 0 0 0 0 0 0 0 0 0 0 0 0 0 0 0 0 0 0 0 0 0
0 0 0 0 0 0 0 0 0 0 0 0 0 0 0 0 0 0 0 0 0 0 0 0 0 0 0 0 0 0 0 0 0 0 0 0 0 0 0 0 0 0 0 0 0 0 0 0 0
Wind_Speed_500mb
20 12 14 6 0 5 5 5 4 7 4 3 18 11 14 11 5 6 33 25 21 15 10 4 6 9 10 11 13 14 16 16 12 18 18 16 13 6 15 10 15 21 8 9 14 15 15 10 8
6 5 14 4 3 2 7 3 10 8 18 38 30 20 11 6 10 28 36 27 25 12 11 6 6 7 8 9 12 14 15 14 14 15 12 13 15 15 6 6 15 15 11 13 10 11 12 7 11
6 8 6 7 3 6 7 4 11 16 26 6 11 16 9 11 28 42 32 33 25 14 11 6 5 6 6 8 11 14 15 16 15 13 12 16 10 12 12 14 17 11 9 15 13 6 5 6 6
17 1 0 6 13 10 6 5 13 19 7 6 25 15 13 7 38 30 42 33 23 15 12 6 4 6 6 9 12 13 15 16 16 15 13 14 17 8 13 17 10 5 13 13 6 6 3 8 9
27 4 5 4 7 8 4 16 17 8 9 13 5 9 12 38 19 37 32 26 19 17 11 5 5 7 8 9 11 13 14 16 17 18 17 11 6 10 16 15 12 17 16 12 12 10 10 7 8
13 8 5 7 7 4 3 17 13 8 10 15 17 14 10 22 35 40 29 24 16 14 9 4 4 6 8 10 12 13 15 16 18 19 19 16 12 11 15 12 11 19 22 16 12 10 8 7 9
16 5 7 3 7 5 8 13 12 13 15 7 26 9 15 36 47 40 32 25 18 11 7 4 4 7 8 10 12 13 15 16 18 20 21 21 20 16 12 14 11 16 23 16 8 10 13 12 13
24 3 3 4 9 4 1 4 14 9 6 27 16 12 15 51 44 35 31 24 19 11 10 7 5 8 9 11 12 13 14 17 19 21 22 22 22 22 19 15 14 11 15 18 14 19 20 21 18
24 6 6 3 6 4 6 4 7 9 26 8 8 20 20 58 48 41 35 30 21 16 15 9 6 8 9 10 12 13 16 20 22 24 25 27 28 27 25 23 19 19 25 23 21 19 20 21 24
9 16 8 2 3 5 11 2 14 9 14 5 9 15 50 60 51 43 37 31 27 19 16 11 7 9 11 12 13 14 18 21 22 24 26 27 28 29 28 27 25 24 24 27 23 24 25 27 29
11 25 10 4 8 7 4 4 3 18 4 11 21 38 65 60 53 40 34 31 17 16 16 10 9 9 10 12 14 15 16 20 22 22 24 25 27 30 31 31 28 26 26 27 26 26 27 32 34
12 15 21 6 18 12 9 5 5 3 0 7 16 39 67 61 57 45 39 35 24 19 15 11 10 9 11 13 14 12 14 15 19 22 22 25 28 30 31 32 33 30 27 25 28 28 27 32 36
6 8 20 8 14 25 7 8 3 2 5 8 25 52 60 54 54 42 34 28 26 18 15 13 9 7 7 7 7 8 11 12 13 18 26 28 30 31 35 35 35 34 34 32 31 30 31 35 38
10 20 13 6 10 15 13 6 2 4 1 13 35 54 53 49 50 43 37 30 26 17 13 10 10 8 4 2 1 4 8 14 16 18 24 26 30 32 34 38 39 35 34 32 30 29 33 36 36
19 10 9 5 5 7 16 4 3 3 9 23 36 47 48 48 47 42 34 30 22 21 14 10 5 7 10 10 10 11 14 17 21 22 24 28 31 34 35 38 37 35 33 33 34 34 35 36 37
9 5 12 5 8 6 11 7 1 9 14 19 26 37 42 43 42 37 33 27 25 25 19 15 12 9 11 13 15 17 19 19 25 27 28 30 34 34 33 36 39 35 33 35 35 37 40 40 43
6 9 11 5 3 9 4 5 2 9 12 16 23 30 35 39 41 39 37 32 22 21 22 21 18 16 14 16 19 22 25 23 24 25 29 33 33 34 37 39 36 33 34 35 37 40 46 50 50
19 13 9 13 12 4 7 13 6 12 18 23 24 28 32 36 40 45 42 40 30 23 23 25 24 21 19 19 21 20 19 21 21 22 28 32 30 33 31 33 33 33 35 34 38 44 46 50 55
17 21 9 4 16 10 25 11 13 6 12 22 29 33 34 34 32 34 32 40 39 28 25 26 22 18 20 21 23 20 20 19 19 22 23 24 26 27 29 30 31 32 35 36 37 43 48 54 54
27 24 11 7 14 7 9 21 11 14 13 28 31 39 41 37 33 31 32 34 37 32 29 24 21 20 21 18 17 21 19 16 15 14 17 25 23 25 29 31 32 33 37 36 35 39 49 55 54
20 33 14 12 10 4 5 11 9 9 12 21 28 33 42 38 35 34 35 35 39 36 31 28 27 27 25 22 21 23 20 20 22 16 20 22 24 26 28 30 32 34 37 39 41 44 47 53 58
13 3 19 30 19 8 10 8 14 21 15 15 38 39 37 36 36 34 39 41 39 35 32 29 28 25 21 21 21 21 19 15 20 19 19 17 19 22 25 28 32 34 38 41 44 46 49 53 62
9 10 19 16 21 9 10 6 6 11 21 23 40 49 42 38 37 38 36 34 33 30 28 27 24 20 16 13 13 11 10 9 10 10 13 16 20 25 28 32 36 39 42 44 48 51 53 55 60
19 17 13 8 5 7 13 20 9 13 28 29 24 59 50 46 43 40 36 31 30 27 25 23 17 13 9 7 6 6 4 3 6 10 14 17 20 24 28 32 37 41 45 48 51 54 56 57 60
3 11 4 3 6 7 5 13 21 13 16 16 35 47 51 47 47 44 42 43 39 34 27 21 15 10 8 7 5 3 3 6 10 12 15 18 21 24 30 35 39 44 48 52 57 60 62 63 66
6 1 8 11 8 4 4 14 10 10 19 33 44 59 52 51 51 50 48 44 37 31 25 19 15 12 9 5 4 5 6 6 8 12 16 22 28 34 37 41 45 50 54 59 63 66 67 70 71
5 4 3 8 4 3 9 11 18 7 10 19 36 54 64 62 58 53 46 40 36 30 25 20 16 13 8 6 5 3 2 5 8 13 20 27 33 39 43 49 54 57 60 64 69 74 75 77 78
7 10 6 2 9 9 7 9 11 8 13 12 26 50 66 66 60 53 48 43 36 30 24 21 18 11 7 9 7 3 5 8 12 18 25 32 39 45 50 55 59 64 67 71 76 80 82 85 86
4 4 6 3 3 4 5 10 10 12 17 25 27 46 69 70 63 57 49 41 33 30 27 25 20 12 11 11 7 7 10 14 20 26 32 39 45 53 58 62 67 72 76 78 82 84 85 88 90
6 5 6 6 7 5 1 12 3 14 13 30 33 46 66 67 62 56 49 44 40 34 30 29 24 15 13 14 12 12 16 20 25 32 38 47 54 58 62 67 72 77 80 82 84 87 85 88 91
Wind_Direction_500mb
194 144 295 267 346 73 261 243 111 110 97 141 126 143 138 63 123 176 142 143 158 175 161 110 53 37 38 47 51 58 70 72 76 72 46 105 73 75 75 43 60 75 61 55 81 82 68 48 16
130 158 237 260 57 72 263 215 156 145 123 108 96 96 58 85 106 139 144 153 155 169 138 107 70 49 54 59 61 59 58 62 71 82 65 85 78 48 173 13 55 55 33 82 69 85 67 41 19
210 176 245 132 174 205 231 197 145 125 139 107 106 85 97 117 139 147 150 154 154 159 141 113 63 49 62 71 65 59 52 50 60 73 64 87 65 49 34 54 69 60 18 96 79 110 79 12 13
191 137 143 93 214 252 223 168 132 128 124 126 122 75 91 146 145 156 145 156 159 163 152 120 63 49 53 67 71 67 58 55 54 57 74 107 72 63 34 66 46 26 28 64 37 36 328 351 13
147 34 310 262 239 280 281 148 149 120 123 132 131 132 98 151 143 147 150 157 171 178 161 116 55 49 69 76 74 67 59 52 45 43 44 56 46 42 44 70 11 5 16 17 37 47 36 31 354
120 114 230 220 227 291 104 163 149 117 131 133 110 100 141 178 157 145 155 157 159 177 167 133 63 62 80 83 75 67 59 51 45 40 36 34 25 22 27 66 26 3 359 3 33 32 19 2 347
133 127 234 266 89 293 203 162 160 136 128 128 134 95 147 161 156 152 158 159 155 175 184 152 83 70 83 85 78 66 59 53 44 37 31 27 24 18 8 12 41 3 8 23 26 353 340 357 332
166 91 222 257 180 205 236 114 130 108 95 134 142 152 168 169 162 159 161 164 169 184 173 159 100 78 89 91 84 71 60 51 46 42 36 31 25 21 14 3 20 2 348 0 356 340 340 336 335
144 169 223 87 201 281 328 121 114 111 136 142 165 160 174 159 168 169 172 173 178 189 177 160 116 83 95 97 86 74 62 53 45 40 37 32 28 24 19 11 355 340 339 338 341 340 332 329 326
130 191 194 125 14 302 304 279 144 129 138 108 142 168 159 164 173 177 179 177 186 197 180 165 132 93 93 93 85 73 61 54 47 42 41 41 38 33 25 18 6 352 342 342 341 346 346 338 337
203 190 151 147 16 350 321 84 105 139 210 195 181 158 166 171 177 181 184 195 190 187 183 161 139 112 104 94 83 73 64 54 49 46 42 37 33 28 22 17 10 358 350 347 343 336 336 333 335
142 140 137 102 18 41 356 94 66 110 239 216 200 177 171 177 181 182 191 199 196 189 179 173 159 132 113 100 88 74 57 48 42 34 26 20 16 12 8 6 5 0 352 345 347 340 332 325 327
149 150 146 117 36 33 25 44 130 22 333 193 182 176 178 180 183 186 197 203 203 198 185 181 170 152 139 118 90 58 38 24 15 14 9 3 3 359 354 353 352 353 352 346 342 336 337 337 332
106 93 137 97 24 47 26 5 32 348 13 169 180 180 184 186 185 189 198 206 206 191 165 196 214 222 218 222 322 333 348 356 342 348 345 341 342 343 344 343 342 341 342 343 339 333 332 336 334
106 78 92 111 30 34 348 303 349 174 161 168 179 185 191 193 193 198 205 211 202 197 204 219 223 259 260 274 283 306 318 329 321 321 321 326 329 327 330 331 328 327 331 336 335 333 332 335 339
101 82 155 140 182 58 56 258 360 174 179 165 184 194 201 202 205 211 214 214 217 222 227 235 242 267 272 269 279 286 297 311 308 315 316 318 318 317 317 318 319 323 326 326 328 331 330 331 333
191 156 179 138 313 126 153 253 278 190 212 195 198 206 211 211 214 218 223 224 231 245 231 243 249 251 252 262 275 290 292 305 310 314 318 315 318 314 314 314 317 319 321 323 327 327 323 323 323
171 174 187 178 198 89 219 258 223 185 207 230 221 219 216 216 219 219 227 229 229 232 225 237 243 244 253 274 282 285 299 309 311 323 319 313 314 316 317 318 324 327 331 338 330 325 323 319 320
153 181 140 155 166 158 207 239 240 198 202 231 233 228 223 221 217 217 222 217 221 226 236 234 233 252 262 273 278 282 293 298 308 309 312 320 325 335 338 338 334 335 331 330 327 320 317 315 319
161 169 150 70 132 205 183 230 199 195 203 215 225 225 222 217 217 216 211 210 216 224 227 225 245 251 259 261 261 274 291 295 302 307 310 310 316 316 323 324 327 327 322 322 319 314 314 314 321
190 185 171 139 133 68 64 285 199 213 219 212 224 227 222 216 213 209 206 206 211 215 222 227 236 244 256 253 252 262 272 279 285 300 315 319 325 326 325 329 330 328 323 323 320 318 316 313 315
185 132 161 141 145 208 178 269 226 193 207 207 217 217 210 207 207 207 204 206 209 214 217 227 236 247 248 246 250 260 270 276 287 319 327 333 335 332 330 330 329 328 325 324 321 319 315 311 308
229 127 147 162 175 135 184 267 218 188 210 215 215 215 208 205 206 201 197 198 201 204 214 229 232 228 232 246 254 263 275 280 299 317 327 334 330 329 333 334 335 333 330 328 324 322 318 314 309
122 86 58 67 90 249 179 198 205 181 209 219 207 212 206 202 202 199 190 190 194 188 181 180 180 188 200 218 232 233 239 272 306 314 322 334 341 344 342 343 341 339 336 332 329 324 321 318 312
30 122 91 131 188 239 322 219 255 241 234 213 207 200 198 193 188 187 179 171 167 164 166 171 177 190 192 194 198 222 274 305 317 337 351 353 350 350 346 341 338 336 333 329 324 321 320 317 313
142 119 173 186 194 185 10 235 241 254 221 222 216 206 188 179 179 177 172 168 165 168 173 180 184 189 187 198 246 290 311 330 346 350 351 346 345 342 337 333 332 330 327 323 319 316 315 313 312
166 115 20 90 46 61 214 278 281 236 240 184 172 176 177 179 178 177 174 171 174 178 181 184 187 184 192 228 237 236 312 341 336 336 336 334 332 330 329 328 327 325 321 318 315 313 312 310 309
34 138 110 54 151 247 265 279 248 275 240 188 176 174 177 179 179 178 177 178 178 180 183 187 184 186 213 211 206 234 288 302 314 321 322 325 327 325 325 325 322 320 319 318 314 312 311 309 309
126 138 75 106 169 233 300 261 210 270 220 199 187 180 180 180 181 179 180 181 183 187 192 195 195 206 218 210 216 261 288 306 316 318 320 322 324 325 325 323 321 321 319 318 314 312 309 307 305
100 166 155 160 195 224 294 279 282 281 246 170 178 184 188 185 183 183 184 187 190 195 200 202 206 218 231 230 242 272 296 305 309 313 318 322 323 323 323 321 320 319 318 317 316 313 311 308 307
Wind_Speed_850mb
20 12 14 6 0 5 5 5 4 7 4 3 18 11 14 11 5 6 33 25 21 15 10 4 6 9 10 11 13 14 16 16 12 18 18 16 13 6 15 10 15 21 8 9 14 15 15 10 8
6 5 14 4 3 2 7 3 10 8 18 38 30 20 11 6 10 28 36 27 25 12 11 6 6 7 8 9 12 14 15 14 14 15 12 13 15 15 6 6 15 15 11 13 10 11 12 7 11
6 8 6 7 3 6 7 4 11 16 26 6 11 16 9 11 28 42 32 33 25 14 11 6 5 6 6 8 11 14 15 16 15 13 12 16 10 12 12 14 17 11 9 15 13 6 5 6 6
17 1 0 6 13 10 6 5 13 19 7 6 25 15 13 7 38 30 42 33 23 15 12 6 4 6 6 9 12 13 15 16 16 15 13 14 17 8 13 17 10 5 13 13 6 6 3 8 9
27 4 5 4 7 8 4 16 17 8 9 13 5 9 12 38 19 37 32 26 19 17 11 5 5 7 8 9 11 13 14 16 17 18 17 11 6 10 16 15 12 17 16 12 12 10 10 7 8
13 8 5 7 7 4 3 17 13 8 10 15 17 14 10 22 35 40 29 24 16 14 9 4 4 6 8 10 12 13 15 16 18 19 19 16 12 11 15 12 11 19 22 16 12 10 8 7 9
16 5 7 3 7 5 8 13 12 13 15 7 26 9 15 36 47 40 32 25 18 11 7 4 4 7 8 10 12 13 15 16 18 20 21 21 20 16 12 14 11 16 23 16 8 10 13 12 13
24 3 3 4 9 4 1 4 14 9 6 27 16 12 15 51 44 35 31 24 19 11 10 7 5 8 9 11 12 13 14 17 19 21 22 22 22 22 19 15 14 11 15 18 14 19 20 21 18
24 6 6 3 6 4 6 4 7 9 26 8 8 20 20 58 48 41 35 30 21 16 15 9 6 8 9 10 12 13 16 20 22 24 25 27 28 27 25 23 19 19 25 23 21 19 20 21 24
9 16 8 2 3 5 11 2 14 9 14 5 9 15 50 60 51 43 37 31 27 19 16 11 7 9 11 12 13 14 18 21 22 24 26 27 28 29 28 27 25 24 24 27 23 24 25 27 29
11 25 10 4 8 7 4 4 3 18 4 11 21 38 65 60 53 40 34 31 17 16 16 10 9 9 10 12 14 15 16 20 22 22 24 25 27 30 31 31 28 26 26 27 26 26 27 32 34
12 15 21 6 18 12 9 5 5 3 0 7 16 39 67 61 57 45 39 35 24 19 15 11 10 9 11 13 14 12 14 15 19 22 22 25 28 30 31 32 33 30 27 25 28 28 27 32 36
6 8 20 8 14 25 7 8 3 2 5 8 25 52 60 54 54 42 34 28 26 18 15 13 9 7 7 7 7 8 11 12 13 18 26 28 30 31 35 35 35 34 34 32 31 30 31 35 38
10 20 13 6 10 15 13 6 2 4 1 13 35 54 53 49 50 43 37 30 26 17 13 10 10 8 4 2 1 4 8 14 16 18 24 26 30 32 34 38 39 35 34 32 30 29 33 36 36
19 10 9 5 5 7 16 4 3 3 9 23 36 47 48 48 47 42 34 30 22 21 14 10 5 7 10 10 10 11 14 17 21 22 24 28 31 34 35 38 37 35 33 33 34 34 35 36 37
9 5 12 5 8 6 11 7 1 9 14 19 26 37 42 43 42 37 33 27 25 25 19 15 12 9 11 13 15 17 19 19 25 27 28 30 34 34 33 36 39 35 33 35 35 37 40 40 43
6 9 11 5 3 9 4 5 2 9 12 16 23 30 35 39 41 39 37 32 22 21 22 21 18 16 14 16 19 22 25 23 24 25 29 33 33 34 37 39 36 33 34 35 37 40 46 50 50
19 13 9 13 12 4 7 13 6 12 18 23 24 28 32 36 40 45 42 40 30 23 23 25 24 21 19 19 21 20 19 21 21 22 28 32 30 33 31 33 33 33 35 34 38 44 46 50 55
17 21 9 4 16 10 25 11 13 6 12 22 29 33 34 34 32 34 32 40 39 28 25 26 22 18 20 21 23 20 20 19 19 22 23 24 26 27 29 30 31 32 35 36 37 43 48 54 54
27 24 11 7 14 7 9 21 11 14 13 28 31 39 41 37 33 31 32 34 37 32 29 24 21 20 21 18 17 21 19 16 15 14 17 25 23 25 29 31 32 33 37 36 35 39 49 55 54
20 33 14 12 10 4 5 11 9 9 12 21 28 33 42 38 35 34 35 35 39 36 31 28 27 27 25 22 21 23 20 20 22 16 20 22 24 26 28 30 32 34 37 39 41 44 47 53 58
13 3 19 30 19 8 10 8 14 21 15 15 38 39 37 36 36 34 39 41 39 35 32 29 28 25 21 21 21 21 19 15 20 19 19 17 19 22 25 28 32 34 38 41 44 46 49 53 62
9 10 19 16 21 9 10 6 6 11 21 23 40 49 42 38 37 38 36 34 33 30 28 27 24 20 16 13 13 11 10 9 10 10 13 16 20 25 28 32 36 39 42 44 48 51 53 55 60
19 17 13 8 5 7 13 20 9 13 28 29 24 59 50 46 43 40 36 31 30 27 25 23 17 13 9 7 6 6 4 3 6 10 14 17 20 24 28 32 37 41 45 48 51 54 56 57 60
3 11 4 3 6 7 5 13 21 13 16 16 35 47 51 47 47 44 42 43 39 34 27 21 15 10 8 7 5 3 3 6 10 12 15 18 21 24 30 35 39 44 48 52 57 60 62 63 66
6 1 8 11 8 4 4 14 10 10 19 33 44 59 52 51 51 50 48 44 37 31 25 19 15 12 9 5 4 5 6 6 8 12 16 22 28 34 37 41 45 50 54 59 63 66 67 70 71
5 4 3 8 4 3 9 11 18 7 10 19 36 54 64 62 58 53 46 40 36 30 25 20 16 13 8 6 5 3 2 5 8 13 20 27 33 39 43 49 54 57 60 64 69 74 75 77 78
7 10 6 2 9 9 7 9 11 8 13 12 26 50 66 66 60 53 48 43 36 30 24 21 18 11 7 9 7 3 5 8 12 18 25 32 39 45 50 55 59 64 67 71 76 80 82 85 86
4 4 6 3 3 4 5 10 10 12 17 25 27 46 69 70 63 57 49 41 33 30 27 25 20 12 11 11 7 7 10 14 20 26 32 39 45 53 58 62 67 72 76 78 82 84 85 88 90
6 5 6 6 7 5 1 12 3 14 13 30 33 46 66 67 62 56 49 44 40 34 30 29 24 15 13 14 12 12 16 20 25 32 38 47 54 58 62 67 72 77 80 82 84 87 85 88 91
Wind_Direction_850mb
194 144 295 267 346 73 261 243 111 110 97 141 126 143 138 63 123 176 142 143 158 175 161 110 53 37 38 47 51 58 70 72 76 72 46 105 73 75 75 43 60 75 61 55 81 82 68 48 16
130 158 237 260 57 72 263 215 156 145 123 108 96 96 58 85 106 139 144 153 155 169 138 107 70 49 54 59 61 59 58 62 71 82 65 85 78 48 173 13 55 55 33 82 69 85 67 41 19
210 176 245 132 174 205 231 197 145 125 139 107 106 85 97 117 139 147 150 154 154 159 141 113 63 49 62 71 65 59 52 50 60 73 64 87 65 49 34 54 69 60 18 96 79 110 79 12 13
191 137 143 93 214 252 223 168 132 128 124 126 122 75 91 146 145 156 145 156 159 163 152 120 63 49 53 67 71 67 58 55 54 57 74 107 72 63 34 66 46 26 28 64 37 36 328 351 13
147 34 310 262 239 280 281 148 149 120 123 132 131 132 98 151 143 147 150 157 171 178 161 116 55 49 69 76 74 67 59 52 45 43 44 56 46 42 44 70 11 5 16 17 37 47 36 31 354
120 114 230 220 227 291 104 163 149 117 131 133 110 100 141 178 157 145 155 157 159 177 167 133 63 62 80 83 75 67 59 51 45 40 36 34 25 22 27 66 26 3 359 3 33 32 19 2 347
133 127 234 266 89 293 203 162 160 136 128 128 134 95 147 161 156 152 158 159 155 175 184 152 83 70 83 85 78 66 59 53 44 37 31 27 24 18 8 12 41 3 8 23 26 353 340 357 332
166 91 222 257 180 205 236 114 130 108 95 134 142 152 168 169 162 159 161 164 169 184 173 159 100 78 89 91 84 71 60 51 46 42 36 31 25 21 14 3 20 2 348 0 356 340 340 336 335
144 169 223 87 201 281 328 121 114 111 136 142 165 160 174 159 168 169 172 173 178 189 177 160 116 83 95 97 86 74 62 53 45 40 37 32 28 24 19 11 355 340 339 338 341 340 332 329 326
130 191 194 125 14 302 304 279 144 129 138 108 142 168 159 164 173 177 179 177 186 197 180 165 132 93 93 93 85 73 61 54 47 42 41 41 38 33 25 18 6 352 342 342 341 346 346 338 337
203 190 151 147 16 350 321 84 105 139 210 195 181 158 166 171 177 181 184 195 190 187 183 161 139 112 104 94 83 73 64 54 49 46 42 37 33 28 22 17 10 358 350 347 343 336 336 333 335
142 140 137 102 18 41 356 94 66 110 239 216 200 177 171 177 181 182 191 199 196 189 179 173 159 132 113 100 88 74 57 48 42 34 26 20 16 12 8 6 5 0 352 345 347 340 332 325 327
149 150 146 117 36 33 25 44 130 22 333 193 182 176 178 180 183 186 197 203 203 198 185 181 170 152 139 118 90 58 38 24 15 14 9 3 3 359 354 353 352 353 352 346 342 336 337 337 332
106 93 137 97 24 47 26 5 32 348 13 169 180 180 184 186 185 189 198 206 206 191 165 196 214 222 218 222 322 333 348 356 342 348 345 341 342 343 344 343 342 341 342 343 339 333 332 336 334
106 78 92 111 30 34 348 303 349 174 161 168 179 185 191 193 193 198 205 211 202 197 204 219 223 259 260 274 283 306 318 329 321 321 321 326 329 327 330 331 328 327 331 336 335 333 332 335 339
101 82 155 140 182 58 56 258 360 174 179 165 184 194 201 202 205 211 214 214 217 222 227 235 242 267 272 269 279 286 297 311 308 315 316 318 318 317 317 318 319 323 326 326 328 331 330 331 333
191 156 179 138 313 126 153 253 278 190 212 195 198 206 211 211 214 218 223 224 231 245 231 243 249 251 252 262 275 290 292 305 310 314 318 315 318 314 314 314 317 319 321 323 327 327 323 323 323
171 174 187 178 198 89 219 258 223 185 207 230 221 219 216 216 219 219 227 229 229 232 225 237 243 244 253 274 282 285 299 309 311 323 319 313 314 316 317 318 324 327 331 338 330 325 323 319 320
153 181 140 155 166 158 207 239 240 198 202 231 233 228 223 221 217 217 222 217 221 226 236 234 233 252 262 273 278 282 293 298 308 309 312 320 325 335 338 338 334 335 331 330 327 320 317 315 319
161 169 150 70 132 205 183 230 199 195 203 215 225 225 222 217 217 216 211 210 216 224 227 225 245 251 259 261 261 274 291 295 302 307 310 310 316 316 323 324 327 327 322 322 319 314 314 314 321
190 185 171 139 133 68 64 285 199 213 219 212 224 227 222 216 213 209 206 206 211 215 222 227 236 244 256 253 252 262 272 279 285 300 315 319 325 326 325 329 330 328 323 323 320 318 316 313 315
185 132 161 141 145 208 178 269 226 193 207 207 217 217 210 207 207 207 204 206 209 214 217 227 236 247 248 246 250 260 270 276 287 319 327 333 335 332 330 330 329 328 325 324 321 319 315 311 308
229 127 147 162 175 135 184 267 218 188 210 215 215 215 208 205 206 201 197 198 201 204 214 229 232 228 232 246 254 263 275 280 299 317 327 334 330 329 333 334 335 333 330 328 324 322 318 314 309
122 86 58 67 90 249 179 198 205 181 209 219 207 212 206 202 202 199 190 190 194 188 181 180 180 188 200 218 232 233 239 272 306 314 322 334 341 344 342 343 341 339 336 332 329 324 321 318 312
30 122 91 131 188 239 322 219 255 241 234 213 207 200 198 193 188 187 179 171 167 164 166 171 177 190 192 194 198 222 274 305 317 337 351 353 350 350 346 341 338 336 333 329 324 321 320 317 313
142 119 173 186 194 185 10 235 241 254 221 222 216 206 188 179 179 177 172 168 165 168 173 180 184 189 187 198 246 290 311 330 346 350 351 346 345 342 337 333 332 330 327 323 319 316 315 313 312
166 115 20 90 46 61 214 278 281 236 240 184 172 176 177 179 178 177 174 171 174 178 181 184 187 184 192 228 237 236 312 341 336 336 336 334 332 330 329 328 327 325 321 318 315 313 312 310 309
34 138 110 54 151 247 265 279 248 275 240 188 176 174 177 179 179 178 177 178 178 180 183 187 184 186 213 211 206 234 288 302 314 321 322 325 327 325 325 325 322 320 319 318 314 312 311 309 309
126 138 75 106 169 233 300 261 210 270 220 199 187 180 180 180 181 179 180 181 183 187 192 195 195 206 218 210 216 261 288 306 316 318 320 322 324 325 325 323 321 321 319 318 314 312 309 307 305
100 166 155 160 195 224 294 279 282 281 246 170 178 184 188 185 183 183 184 187 190 195 200 202 206 218 231 230 242 272 296 305 309 313 318 322 323 323 323 321 320 319 318 317 316 313 311 308 307